Year,Month,Day,Hour,Minute,Value (Times are PST for temperature in C)
2008,09,18,00,00,10.70
2008,09,18,00,01,10.70
2008,09,18,00,02,10.70
2008,09,18,00,03,10.70
2008,09,18,00,04,10.70
2008,09,18,00,05,10.70
2008,09,18,00,06,10.60
2008,09,18,00,07,10.60
2008,09,18,00,08,10.60
2008,09,18,00,09,10.60
2008,09,18,00,10,10.60
2008,09,18,00,11,10.60
2008,09,18,00,12,10.60
2008,09,18,00,13,10.60
2008,09,18,00,14,10.60
2008,09,18,00,15,10.50
2008,09,18,00,16,10.50
2008,09,18,00,17,10.50
2008,09,18,00,18,10.50
2008,09,18,00,19,10.50
2008,09,18,00,20,10.40
2008,09,18,00,21,10.40
2008,09,18,00,22,10.40
2008,09,18,00,23,10.40
2008,09,18,00,24,10.40
2008,09,18,00,25,10.40
2008,09,18,00,26,10.40
2008,09,18,00,27,10.40
2008,09,18,00,28,10.40
2008,09,18,00,29,10.40
2008,09,18,00,30,10.30
2008,09,18,00,31,10.30
2008,09,18,00,32,10.30
2008,09,18,00,33,10.30
2008,09,18,00,34,10.30
2008,09,18,00,35,10.30
2008,09,18,00,36,10.30
2008,09,18,00,37,10.30
2008,09,18,00,38,10.30
2008,09,18,00,39,10.30
2008,09,18,00,40,10.30
2008,09,18,00,41,10.30
2008,09,18,00,42,10.30
2008,09,18,00,43,10.30
2008,09,18,00,44,10.20
2008,09,18,00,45,10.20
2008,09,18,00,46,10.20
2008,09,18,00,47,10.20
2008,09,18,00,48,10.20
2008,09,18,00,49,10.20
2008,09,18,00,50,10.20
2008,09,18,00,51,10.20
2008,09,18,00,52,10.20
2008,09,18,00,53,10.20
2008,09,18,00,54,10.20
2008,09,18,00,55,10.20
2008,09,18,00,56,10.20
2008,09,18,00,57,10.20
2008,09,18,00,58,10.20
2008,09,18,00,59,10.20
2008,09,18,01,00,10.20
2008,09,18,01,01,10.20
2008,09,18,01,02,10.10
2008,09,18,01,03,10.10
2008,09,18,01,04,10.10
2008,09,18,01,05,10.10
2008,09,18,01,06,10.10
2008,09,18,01,07,10.10
2008,09,18,01,08,10.10
2008,09,18,01,09,10.10
2008,09,18,01,10,10.00
2008,09,18,01,11,10.00
2008,09,18,01,12,10.00
2008,09,18,01,13,10.00
2008,09,18,01,14,10.00
2008,09,18,01,15,9.90
2008,09,18,01,16,9.90
2008,09,18,01,17,9.90
2008,09,18,01,18,9.90
2008,09,18,01,19,9.90
2008,09,18,01,20,9.90
2008,09,18,01,21,9.90
2008,09,18,01,22,9.90
2008,09,18,01,23,9.90
2008,09,18,01,24,9.90
2008,09,18,01,25,9.80
2008,09,18,01,26,9.90
2008,09,18,01,27,9.80
2008,09,18,01,28,9.80
2008,09,18,01,29,9.80
2008,09,18,01,30,9.80
2008,09,18,01,31,9.80
2008,09,18,01,32,9.80
2008,09,18,01,33,9.80
2008,09,18,01,34,9.80
2008,09,18,01,35,9.80
2008,09,18,01,36,9.80
2008,09,18,01,37,9.80
2008,09,18,01,38,9.80
2008,09,18,01,39,9.80
2008,09,18,01,40,9.80
2008,09,18,01,41,9.80
2008,09,18,01,42,9.80
2008,09,18,01,43,9.80
2008,09,18,01,44,9.80
2008,09,18,01,45,9.70
2008,09,18,01,46,9.70
2008,09,18,01,47,9.70
2008,09,18,01,48,9.70
2008,09,18,01,49,9.70
2008,09,18,01,50,9.70
2008,09,18,01,51,9.70
2008,09,18,01,52,9.70
2008,09,18,01,53,9.70
2008,09,18,01,54,9.60
2008,09,18,01,55,9.60
2008,09,18,01,56,9.60
2008,09,18,01,57,9.60
2008,09,18,01,58,9.60
2008,09,18,01,59,9.60
2008,09,18,02,00,9.60
2008,09,18,02,01,9.60
2008,09,18,02,02,9.60
2008,09,18,02,03,9.60
2008,09,18,02,04,9.60
2008,09,18,02,05,9.60
2008,09,18,02,06,9.60
2008,09,18,02,07,9.60
2008,09,18,02,08,9.60
2008,09,18,02,09,9.60
2008,09,18,02,10,9.60
2008,09,18,02,11,9.60
2008,09,18,02,12,9.60
2008,09,18,02,13,9.60
2008,09,18,02,14,9.60
2008,09,18,02,15,9.60
2008,09,18,02,16,9.60
2008,09,18,02,17,9.60
2008,09,18,02,18,9.60
2008,09,18,02,19,9.60
2008,09,18,02,20,9.50
2008,09,18,02,21,9.50
2008,09,18,02,22,9.50
2008,09,18,02,23,9.50
2008,09,18,02,24,9.50
2008,09,18,02,25,9.50
2008,09,18,02,26,9.50
2008,09,18,02,27,9.50
2008,09,18,02,28,9.50
2008,09,18,02,29,9.50
2008,09,18,02,30,9.50
2008,09,18,02,31,9.40
2008,09,18,02,32,9.40
2008,09,18,02,33,9.40
2008,09,18,02,34,9.40
2008,09,18,02,35,9.40
2008,09,18,02,36,9.40
2008,09,18,02,37,9.40
2008,09,18,02,38,9.40
2008,09,18,02,39,9.40
2008,09,18,02,40,9.40
2008,09,18,02,41,9.40
2008,09,18,02,42,9.40
2008,09,18,02,43,9.40
2008,09,18,02,44,9.30
2008,09,18,02,45,9.30
2008,09,18,02,46,9.30
2008,09,18,02,47,9.30
2008,09,18,02,48,9.30
2008,09,18,02,49,9.30
2008,09,18,02,50,9.30
2008,09,18,02,51,9.30
2008,09,18,02,52,9.30
2008,09,18,02,53,9.30
2008,09,18,02,54,9.30
2008,09,18,02,55,9.20
2008,09,18,02,56,9.20
2008,09,18,02,57,9.20
2008,09,18,02,58,9.20
2008,09,18,02,59,9.20
2008,09,18,03,00,9.20
2008,09,18,03,01,9.20
2008,09,18,03,02,9.20
2008,09,18,03,03,9.20
2008,09,18,03,04,9.20
2008,09,18,03,05,9.20
2008,09,18,03,06,9.20
2008,09,18,03,07,9.10
2008,09,18,03,08,9.10
2008,09,18,03,09,9.10
2008,09,18,03,10,9.10
2008,09,18,03,11,9.10
2008,09,18,03,12,9.10
2008,09,18,03,13,9.10
2008,09,18,03,14,9.10
2008,09,18,03,15,9.10
2008,09,18,03,16,9.10
2008,09,18,03,17,9.10
2008,09,18,03,18,9.00
2008,09,18,03,19,9.00
2008,09,18,03,20,9.00
2008,09,18,03,21,9.00
2008,09,18,03,22,9.00
2008,09,18,03,23,9.00
2008,09,18,03,24,8.90
2008,09,18,03,25,8.90
2008,09,18,03,26,8.90
2008,09,18,03,27,8.90
2008,09,18,03,28,8.90
2008,09,18,03,29,8.90
2008,09,18,03,30,8.90
2008,09,18,03,31,8.90
2008,09,18,03,32,8.90
2008,09,18,03,33,8.90
2008,09,18,03,34,8.90
2008,09,18,03,35,8.90
2008,09,18,03,36,8.80
2008,09,18,03,37,8.80
2008,09,18,03,38,8.80
2008,09,18,03,39,8.80
2008,09,18,03,40,8.80
2008,09,18,03,41,8.80
2008,09,18,03,42,8.80
2008,09,18,03,43,8.80
2008,09,18,03,44,8.80
2008,09,18,03,45,8.80
2008,09,18,03,46,8.70
2008,09,18,03,47,8.70
2008,09,18,03,48,8.70
2008,09,18,03,49,8.70
2008,09,18,03,50,8.70
2008,09,18,03,51,8.70
2008,09,18,03,52,8.70
2008,09,18,03,53,8.70
2008,09,18,03,54,8.70
2008,09,18,03,55,8.70
2008,09,18,03,56,8.70
2008,09,18,03,57,8.60
2008,09,18,03,58,8.60
2008,09,18,03,59,8.60
2008,09,18,04,00,8.60
2008,09,18,04,01,8.60
2008,09,18,04,02,8.60
2008,09,18,04,03,8.60
2008,09,18,04,04,8.60
2008,09,18,04,05,8.60
2008,09,18,04,06,8.60
2008,09,18,04,07,8.60
2008,09,18,04,08,8.60
2008,09,18,04,09,8.60
2008,09,18,04,13,8.60
2008,09,18,04,26,8.40
2008,09,18,04,45,8.20
2008,09,18,05,01,8.20
2008,09,18,05,19,8.10
2008,09,18,05,32,8.10
2008,09,18,05,33,8.10
2008,09,18,05,34,8.10
2008,09,18,05,35,8.10
2008,09,18,05,36,8.10
2008,09,18,05,37,8.10
2008,09,18,05,38,8.10
2008,09,18,05,39,8.10
2008,09,18,05,40,8.10
2008,09,18,05,41,8.10
2008,09,18,05,42,8.10
2008,09,18,05,43,8.10
2008,09,18,05,44,8.10
2008,09,18,05,45,8.10
2008,09,18,05,46,8.00
2008,09,18,05,47,8.00
2008,09,18,05,48,8.00
2008,09,18,05,49,8.00
2008,09,18,05,50,8.00
2008,09,18,05,51,8.00
2008,09,18,05,52,8.00
2008,09,18,05,53,8.00
2008,09,18,05,54,8.00
2008,09,18,05,55,8.00
2008,09,18,05,56,8.00
2008,09,18,05,57,7.90
2008,09,18,05,58,7.90
2008,09,18,05,59,7.90
2008,09,18,06,00,7.90
2008,09,18,06,01,7.90
2008,09,18,06,02,8.00
2008,09,18,06,03,8.00
2008,09,18,06,04,8.00
2008,09,18,06,05,8.00
2008,09,18,06,06,8.00
2008,09,18,06,07,8.00
2008,09,18,06,08,8.00
2008,09,18,06,09,8.00
2008,09,18,06,10,8.00
2008,09,18,06,11,8.00
2008,09,18,06,12,8.00
2008,09,18,06,13,8.00
2008,09,18,06,14,8.00
2008,09,18,06,15,8.00
2008,09,18,06,16,8.00
2008,09,18,06,17,7.90
2008,09,18,06,18,7.90
2008,09,18,06,19,7.90
2008,09,18,06,20,7.90
2008,09,18,06,21,7.90
2008,09,18,06,22,7.90
2008,09,18,06,23,7.90
2008,09,18,06,24,7.90
2008,09,18,06,25,7.90
2008,09,18,06,26,7.90
2008,09,18,06,27,7.90
2008,09,18,06,28,7.90
2008,09,18,06,29,7.90
2008,09,18,06,30,7.90
2008,09,18,06,31,7.90
2008,09,18,06,32,7.90
2008,09,18,06,33,7.90
2008,09,18,06,34,7.80
2008,09,18,06,35,7.80
2008,09,18,06,36,7.80
2008,09,18,06,37,7.80
2008,09,18,06,38,7.80
2008,09,18,06,39,7.80
2008,09,18,06,40,7.80
2008,09,18,06,41,7.80
2008,09,18,06,42,7.80
2008,09,18,06,43,7.80
2008,09,18,06,44,7.80
2008,09,18,06,45,7.80
2008,09,18,06,46,7.80
2008,09,18,06,47,7.70
2008,09,18,06,48,7.70
2008,09,18,06,49,7.70
2008,09,18,06,50,7.70
2008,09,18,06,51,7.70
2008,09,18,06,52,7.70
2008,09,18,06,53,7.70
2008,09,18,06,54,7.70
2008,09,18,06,55,7.70
2008,09,18,06,56,7.70
2008,09,18,06,57,7.70
2008,09,18,06,58,7.70
2008,09,18,06,59,7.70
2008,09,18,07,00,7.70
2008,09,18,07,01,7.70
2008,09,18,07,02,7.70
2008,09,18,07,03,7.70
2008,09,18,07,04,7.70
2008,09,18,07,05,7.70
2008,09,18,07,06,7.70
2008,09,18,07,07,7.70
2008,09,18,07,08,7.70
2008,09,18,07,09,7.70
2008,09,18,07,10,7.70
2008,09,18,07,11,7.70
2008,09,18,07,12,7.60
2008,09,18,07,13,7.60
2008,09,18,07,14,7.60
2008,09,18,07,15,7.60
2008,09,18,07,16,7.60
2008,09,18,07,17,7.60
2008,09,18,07,18,7.60
2008,09,18,07,19,7.60
2008,09,18,07,20,7.60
2008,09,18,07,21,7.60
2008,09,18,07,22,7.60
2008,09,18,07,23,7.60
2008,09,18,07,24,7.70
2008,09,18,07,25,7.70
2008,09,18,07,26,7.70
2008,09,18,07,27,7.70
2008,09,18,07,28,7.70
2008,09,18,07,29,7.70
2008,09,18,07,30,7.70
2008,09,18,07,31,7.70
2008,09,18,07,32,7.70
2008,09,18,07,33,7.70
2008,09,18,07,34,7.70
2008,09,18,07,35,7.70
2008,09,18,07,36,7.70
2008,09,18,07,37,7.70
2008,09,18,07,38,7.70
2008,09,18,07,39,7.70
2008,09,18,07,40,7.70
2008,09,18,07,41,7.70
2008,09,18,07,42,7.80
2008,09,18,07,43,7.80
2008,09,18,07,44,7.80
2008,09,18,07,45,7.80
2008,09,18,07,46,7.80
2008,09,18,07,47,7.80
2008,09,18,07,48,7.80
2008,09,18,07,49,7.80
2008,09,18,07,50,7.80
2008,09,18,07,51,7.80
2008,09,18,07,52,7.80
2008,09,18,07,53,7.90
2008,09,18,07,54,7.90
2008,09,18,07,55,7.90
2008,09,18,07,56,7.90
2008,09,18,07,57,7.90
2008,09,18,07,58,7.90
2008,09,18,07,59,7.90
2008,09,18,08,00,7.90
2008,09,18,08,01,8.00
2008,09,18,08,02,8.00
2008,09,18,08,03,8.00
2008,09,18,08,04,8.10
2008,09,18,08,05,8.10
2008,09,18,08,06,8.20
2008,09,18,08,07,8.20
2008,09,18,08,08,8.20
2008,09,18,08,09,8.30
2008,09,18,08,10,8.30
2008,09,18,08,11,8.30
2008,09,18,08,12,8.30
2008,09,18,08,13,8.30
2008,09,18,08,14,8.40
2008,09,18,08,15,8.40
2008,09,18,08,16,8.40
2008,09,18,08,17,8.40
2008,09,18,08,18,8.50
2008,09,18,08,19,8.50
2008,09,18,08,20,8.60
2008,09,18,08,21,8.60
2008,09,18,08,22,8.70
2008,09,18,08,23,8.70
2008,09,18,08,24,8.80
2008,09,18,08,25,8.90
2008,09,18,08,26,9.00
2008,09,18,08,27,9.10
2008,09,18,08,28,9.20
2008,09,18,08,29,9.30
2008,09,18,08,30,9.40
2008,09,18,08,31,9.50
2008,09,18,08,32,9.60
2008,09,18,08,33,9.60
2008,09,18,08,34,9.70
2008,09,18,08,35,9.80
2008,09,18,08,36,9.80
2008,09,18,08,37,9.90
2008,09,18,08,38,9.90
2008,09,18,08,39,10.00
2008,09,18,08,40,10.10
2008,09,18,08,41,10.10
2008,09,18,08,42,10.20
2008,09,18,08,43,10.20
2008,09,18,08,44,10.30
2008,09,18,08,45,10.30
2008,09,18,08,46,10.40
2008,09,18,08,47,10.40
2008,09,18,08,48,10.50
2008,09,18,08,49,10.50
2008,09,18,08,50,10.60
2008,09,18,08,51,10.60
2008,09,18,08,52,10.70
2008,09,18,08,53,10.70
2008,09,18,08,54,10.80
2008,09,18,08,55,10.80
2008,09,18,08,56,10.90
2008,09,18,08,57,11.00
2008,09,18,08,58,11.10
2008,09,18,08,59,11.20
2008,09,18,09,00,11.30
2008,09,18,09,01,11.40
2008,09,18,09,02,11.50
2008,09,18,09,03,11.60
2008,09,18,09,04,11.70
2008,09,18,09,05,11.80
2008,09,18,09,06,11.80
2008,09,18,09,07,11.90
2008,09,18,09,08,12.00
2008,09,18,09,09,12.00
2008,09,18,09,10,12.10
2008,09,18,09,11,12.10
2008,09,18,09,12,12.20
2008,09,18,09,13,12.20
2008,09,18,09,14,12.30
2008,09,18,09,15,12.30
2008,09,18,09,16,12.30
2008,09,18,09,17,12.40
2008,09,18,09,18,12.40
2008,09,18,09,19,12.40
2008,09,18,09,20,12.50
2008,09,18,09,21,12.50
2008,09,18,09,22,12.60
2008,09,18,09,23,12.60
2008,09,18,09,24,12.60
2008,09,18,09,25,12.70
2008,09,18,09,26,12.70
2008,09,18,09,27,12.70
2008,09,18,09,28,12.70
2008,09,18,09,29,12.80
2008,09,18,09,30,12.80
2008,09,18,09,31,12.90
2008,09,18,09,32,12.90
2008,09,18,09,33,13.00
2008,09,18,09,34,13.00
2008,09,18,09,35,13.10
2008,09,18,09,36,13.10
2008,09,18,09,37,13.10
2008,09,18,09,38,13.10
2008,09,18,09,39,13.20
2008,09,18,09,40,13.20
2008,09,18,09,41,13.20
2008,09,18,09,42,13.30
2008,09,18,09,43,13.30
2008,09,18,09,44,13.40
2008,09,18,09,45,13.40
2008,09,18,09,46,13.50
2008,09,18,09,47,13.50
2008,09,18,09,48,13.60
2008,09,18,09,49,13.60
2008,09,18,09,50,13.70
2008,09,18,09,51,13.70
2008,09,18,09,52,13.80
2008,09,18,09,53,13.80
2008,09,18,09,54,13.80
2008,09,18,09,55,13.80
2008,09,18,09,56,13.90
2008,09,18,09,57,13.90
2008,09,18,09,58,13.80
2008,09,18,09,59,13.80
2008,09,18,10,00,13.80
2008,09,18,10,01,13.80
2008,09,18,10,02,13.90
2008,09,18,10,03,13.90
2008,09,18,10,04,13.90
2008,09,18,10,05,13.90
2008,09,18,10,06,13.90
2008,09,18,10,07,13.90
2008,09,18,10,08,14.00
2008,09,18,10,09,14.00
2008,09,18,10,10,14.00
2008,09,18,10,11,14.00
2008,09,18,10,12,14.10
2008,09,18,10,13,14.10
2008,09,18,10,14,14.20
2008,09,18,10,15,14.20
2008,09,18,10,16,14.20
2008,09,18,10,17,14.20
2008,09,18,10,18,14.30
2008,09,18,10,19,14.30
2008,09,18,10,20,14.40
2008,09,18,10,21,14.40
2008,09,18,10,22,14.40
2008,09,18,10,23,14.50
2008,09,18,10,24,14.50
2008,09,18,10,25,14.60
2008,09,18,10,26,14.60
2008,09,18,10,27,14.70
2008,09,18,10,28,14.70
2008,09,18,10,29,14.70
2008,09,18,10,30,14.80
2008,09,18,10,31,14.80
2008,09,18,10,32,14.90
2008,09,18,10,33,15.00
2008,09,18,10,34,15.00
2008,09,18,10,35,15.00
2008,09,18,10,36,15.00
2008,09,18,10,37,15.00
2008,09,18,10,38,15.00
2008,09,18,10,39,15.00
2008,09,18,10,40,15.10
2008,09,18,10,41,15.20
2008,09,18,10,42,15.20
2008,09,18,10,43,15.10
2008,09,18,10,44,15.10
2008,09,18,10,45,15.00
2008,09,18,10,46,15.00
2008,09,18,10,47,15.00
2008,09,18,10,48,15.00
2008,09,18,10,49,15.00
2008,09,18,10,50,14.90
2008,09,18,10,51,14.90
2008,09,18,10,52,14.90
2008,09,18,10,53,14.90
2008,09,18,10,54,15.00
2008,09,18,10,55,15.00
2008,09,18,10,56,15.00
2008,09,18,10,57,15.00
2008,09,18,10,58,15.10
2008,09,18,10,59,15.20
2008,09,18,11,00,15.30
2008,09,18,11,01,15.40
2008,09,18,11,02,15.40
2008,09,18,11,03,15.40
2008,09,18,11,04,15.50
2008,09,18,11,05,15.50
2008,09,18,11,06,15.60
2008,09,18,11,07,15.70
2008,09,18,11,08,15.70
2008,09,18,11,09,15.80
2008,09,18,11,10,15.80
2008,09,18,11,11,15.80
2008,09,18,11,12,15.80
2008,09,18,11,13,15.70
2008,09,18,11,14,15.70
2008,09,18,11,15,15.70
2008,09,18,11,16,15.60
2008,09,18,11,17,15.60
2008,09,18,11,18,15.60
2008,09,18,11,19,15.70
2008,09,18,11,20,15.60
2008,09,18,11,21,15.50
2008,09,18,11,22,15.50
2008,09,18,11,23,15.40
2008,09,18,11,24,15.30
2008,09,18,11,25,15.30
2008,09,18,11,26,15.30
2008,09,18,11,27,15.30
2008,09,18,11,28,15.30
2008,09,18,11,29,15.30
2008,09,18,11,30,15.20
2008,09,18,11,31,15.20
2008,09,18,11,32,15.20
2008,09,18,11,33,15.20
2008,09,18,11,34,15.10
2008,09,18,11,35,15.20
2008,09,18,11,36,15.20
2008,09,18,11,37,15.20
2008,09,18,11,38,15.30
2008,09,18,11,39,15.30
2008,09,18,11,40,15.40
2008,09,18,11,41,15.40
2008,09,18,11,42,15.40
2008,09,18,11,43,15.30
2008,09,18,11,44,15.30
2008,09,18,11,45,15.30
2008,09,18,11,46,15.30
2008,09,18,11,47,15.20
2008,09,18,11,48,15.20
2008,09,18,11,49,15.20
2008,09,18,11,50,15.20
2008,09,18,11,51,15.20
2008,09,18,11,52,15.20
2008,09,18,11,53,15.30
2008,09,18,11,54,15.20
2008,09,18,11,55,15.20
2008,09,18,11,56,15.20
2008,09,18,11,57,15.20
2008,09,18,11,58,15.30
2008,09,18,11,59,15.30
2008,09,18,12,00,15.30
2008,09,18,12,01,15.20
2008,09,18,12,02,15.20
2008,09,18,12,03,15.30
2008,09,18,12,04,15.30
2008,09,18,12,05,15.30
2008,09,18,12,06,15.30
2008,09,18,12,07,15.40
2008,09,18,12,08,15.40
2008,09,18,12,09,15.50
2008,09,18,12,10,15.60
2008,09,18,12,11,15.70
2008,09,18,12,12,15.70
2008,09,18,12,13,15.80
2008,09,18,12,14,15.80
2008,09,18,12,15,15.80
2008,09,18,12,16,15.80
2008,09,18,12,17,15.90
2008,09,18,12,18,15.90
2008,09,18,12,19,16.00
2008,09,18,12,20,16.10
2008,09,18,12,21,16.10
2008,09,18,12,22,16.10
2008,09,18,12,23,16.10
2008,09,18,12,24,16.10
2008,09,18,12,25,16.10
2008,09,18,12,26,16.00
2008,09,18,12,27,16.00
2008,09,18,12,28,16.00
2008,09,18,12,29,16.10
2008,09,18,12,30,16.10
2008,09,18,12,31,16.10
2008,09,18,12,32,16.10
2008,09,18,12,33,16.10
2008,09,18,12,34,16.20
2008,09,18,12,35,16.20
2008,09,18,12,36,16.30
2008,09,18,12,37,16.30
2008,09,18,12,38,16.30
2008,09,18,12,39,16.40
2008,09,18,12,40,16.40
2008,09,18,12,41,16.40
2008,09,18,12,42,16.40
2008,09,18,12,43,16.40
2008,09,18,12,44,16.40
2008,09,18,12,45,16.40
2008,09,18,12,46,16.40
2008,09,18,12,47,16.40
2008,09,18,12,48,16.40
2008,09,18,12,49,16.50
2008,09,18,12,50,16.50
2008,09,18,12,51,16.50
2008,09,18,12,52,16.60
2008,09,18,12,53,16.60
2008,09,18,12,54,16.70
2008,09,18,12,55,16.70
2008,09,18,12,56,16.80
2008,09,18,12,57,16.80
2008,09,18,12,58,16.90
2008,09,18,12,59,16.90
2008,09,18,13,00,16.90
2008,09,18,13,01,16.90
2008,09,18,13,02,16.90
2008,09,18,13,03,16.80
2008,09,18,13,04,16.80
2008,09,18,13,05,16.80
2008,09,18,13,06,16.80
2008,09,18,13,07,16.80
2008,09,18,13,08,16.80
2008,09,18,13,09,16.90
2008,09,18,13,10,16.90
2008,09,18,13,11,16.90
2008,09,18,13,12,16.90
2008,09,18,13,13,17.00
2008,09,18,13,14,17.00
2008,09,18,13,15,17.10
2008,09,18,13,16,17.10
2008,09,18,13,17,17.10
2008,09,18,13,18,17.00
2008,09,18,13,19,17.00
2008,09,18,13,20,16.90
2008,09,18,13,21,16.90
2008,09,18,13,22,16.80
2008,09,18,13,23,16.80
2008,09,18,13,24,16.70
2008,09,18,13,25,16.70
2008,09,18,13,26,16.60
2008,09,18,13,27,16.50
2008,09,18,13,28,16.50
2008,09,18,13,29,16.50
2008,09,18,13,30,16.50
2008,09,18,13,31,16.50
2008,09,18,13,32,16.60
2008,09,18,13,33,16.60
2008,09,18,13,34,16.60
2008,09,18,13,35,16.60
2008,09,18,13,36,16.70
2008,09,18,13,37,16.70
2008,09,18,13,38,16.60
2008,09,18,13,39,16.60
2008,09,18,13,40,16.70
2008,09,18,13,41,16.70
2008,09,18,13,42,16.70
2008,09,18,13,43,16.60
2008,09,18,13,44,16.60
2008,09,18,13,45,16.60
2008,09,18,13,46,16.70
2008,09,18,13,47,16.70
2008,09,18,13,48,16.80
2008,09,18,13,49,16.80
2008,09,18,13,50,16.90
2008,09,18,13,51,16.90
2008,09,18,13,52,16.90
2008,09,18,13,53,16.90
2008,09,18,13,54,17.00
2008,09,18,13,55,17.00
2008,09,18,13,56,17.10
2008,09,18,13,57,17.10
2008,09,18,13,58,17.20
2008,09,18,13,59,17.20
2008,09,18,14,00,17.20
2008,09,18,14,01,17.20
2008,09,18,14,02,17.30
2008,09,18,14,03,17.30
2008,09,18,14,04,17.20
2008,09,18,14,05,17.20
2008,09,18,14,06,17.20
2008,09,18,14,07,17.20
2008,09,18,14,08,17.20
2008,09,18,14,09,17.20
2008,09,18,14,10,17.20
2008,09,18,14,11,17.20
2008,09,18,14,12,17.20
2008,09,18,14,13,17.30
2008,09,18,14,14,17.30
2008,09,18,14,15,17.40
2008,09,18,14,16,17.50
2008,09,18,14,17,17.60
2008,09,18,14,18,17.60
2008,09,18,14,19,17.60
2008,09,18,14,20,17.60
2008,09,18,14,21,17.70
2008,09,18,14,22,17.80
2008,09,18,14,23,17.90
2008,09,18,14,24,17.90
2008,09,18,14,25,17.80
2008,09,18,14,26,17.80
2008,09,18,14,27,17.80
2008,09,18,14,28,17.70
2008,09,18,14,29,17.80
2008,09,18,14,30,17.80
2008,09,18,14,31,17.90
2008,09,18,14,32,17.90
2008,09,18,14,33,17.90
2008,09,18,14,34,17.90
2008,09,18,14,35,18.10
2008,09,18,14,36,18.20
2008,09,18,14,37,18.20
2008,09,18,14,38,18.20
2008,09,18,14,39,18.10
2008,09,18,14,40,18.10
2008,09,18,14,41,18.10
2008,09,18,14,42,18.10
2008,09,18,14,43,18.00
2008,09,18,14,44,18.00
2008,09,18,14,45,17.90
2008,09,18,14,46,17.90
2008,09,18,14,47,17.90
2008,09,18,14,48,17.80
2008,09,18,14,49,17.80
2008,09,18,14,50,17.70
2008,09,18,14,51,17.60
2008,09,18,14,52,17.60
2008,09,18,14,53,17.50
2008,09,18,14,54,17.50
2008,09,18,14,55,17.40
2008,09,18,14,56,17.40
2008,09,18,14,57,17.50
2008,09,18,14,58,17.50
2008,09,18,14,59,17.60
2008,09,18,15,00,17.70
2008,09,18,15,01,17.80
2008,09,18,15,02,17.90
2008,09,18,15,03,18.00
2008,09,18,15,04,18.10
2008,09,18,15,05,18.00
2008,09,18,15,06,18.00
2008,09,18,15,07,18.00
2008,09,18,15,08,18.00
2008,09,18,15,09,18.00
2008,09,18,15,10,18.00
2008,09,18,15,11,18.10
2008,09,18,15,12,18.10
2008,09,18,15,13,18.20
2008,09,18,15,14,18.20
2008,09,18,15,15,18.20
2008,09,18,15,16,18.30
2008,09,18,15,17,18.30
2008,09,18,15,18,18.30
2008,09,18,15,19,18.30
2008,09,18,15,20,18.40
2008,09,18,15,21,18.40
2008,09,18,15,22,18.30
2008,09,18,15,23,18.30
2008,09,18,15,24,18.20
2008,09,18,15,25,18.20
2008,09,18,15,26,18.20
2008,09,18,15,27,18.20
2008,09,18,15,28,18.20
2008,09,18,15,29,18.10
2008,09,18,15,30,18.10
2008,09,18,15,31,18.10
2008,09,18,15,32,18.10
2008,09,18,15,33,18.10
2008,09,18,15,34,18.10
2008,09,18,15,35,18.10
2008,09,18,15,36,18.00
2008,09,18,15,37,18.00
2008,09,18,15,38,18.00
2008,09,18,15,39,18.00
2008,09,18,15,40,18.00
2008,09,18,15,41,17.90
2008,09,18,15,42,17.90
2008,09,18,15,43,17.90
2008,09,18,15,44,18.00
2008,09,18,15,45,18.00
2008,09,18,15,46,18.00
2008,09,18,15,47,18.00
2008,09,18,15,48,18.00
2008,09,18,15,49,18.00
2008,09,18,15,50,18.00
2008,09,18,15,51,18.10
2008,09,18,15,52,18.10
2008,09,18,15,53,18.10
2008,09,18,15,54,18.10
2008,09,18,15,55,18.10
2008,09,18,15,56,18.20
2008,09,18,15,57,18.20
2008,09,18,15,58,18.10
2008,09,18,15,59,18.10
2008,09,18,16,00,18.00
2008,09,18,16,01,18.00
2008,09,18,16,02,17.90
2008,09,18,16,03,17.70
2008,09,18,16,04,17.50
2008,09,18,16,05,17.30
2008,09,18,16,06,17.10
2008,09,18,16,07,16.90
2008,09,18,16,08,16.80
2008,09,18,16,09,16.80
2008,09,18,16,10,16.80
2008,09,18,16,11,16.80
2008,09,18,16,12,16.80
2008,09,18,16,13,16.80
2008,09,18,16,14,16.80
2008,09,18,16,15,16.70
2008,09,18,16,16,16.70
2008,09,18,16,17,16.70
2008,09,18,16,18,16.60
2008,09,18,16,19,16.60
2008,09,18,16,20,16.60
2008,09,18,16,21,16.70
2008,09,18,16,22,16.70
2008,09,18,16,23,16.70
2008,09,18,16,24,16.70
2008,09,18,16,25,16.70
2008,09,18,16,26,16.70
2008,09,18,16,27,16.80
2008,09,18,16,28,16.80
2008,09,18,16,29,16.90
2008,09,18,16,30,16.90
2008,09,18,16,31,16.90
2008,09,18,16,32,16.90
2008,09,18,16,33,16.90
2008,09,18,16,34,16.90
2008,09,18,16,35,16.90
2008,09,18,16,36,16.90
2008,09,18,16,37,16.90
2008,09,18,16,38,16.80
2008,09,18,16,39,16.80
2008,09,18,16,40,16.80
2008,09,18,16,41,16.80
2008,09,18,16,42,16.80
2008,09,18,16,43,16.80
2008,09,18,16,44,16.80
2008,09,18,16,45,16.80
2008,09,18,16,46,16.80
2008,09,18,16,47,16.70
2008,09,18,16,48,16.70
2008,09,18,16,49,16.60
2008,09,18,16,50,16.60
2008,09,18,16,51,16.60
2008,09,18,16,52,16.60
2008,09,18,16,53,16.60
2008,09,18,16,54,16.60
2008,09,18,16,55,16.60
2008,09,18,16,56,16.50
2008,09,18,16,57,16.50
2008,09,18,16,58,16.50
2008,09,18,16,59,16.50
2008,09,18,17,00,16.50
2008,09,18,17,01,16.50
2008,09,18,17,02,16.50
2008,09,18,17,03,16.50
2008,09,18,17,04,16.50
2008,09,18,17,05,16.50
2008,09,18,17,06,16.50
2008,09,18,17,07,16.50
2008,09,18,17,08,16.50
2008,09,18,17,09,16.50
2008,09,18,17,10,16.50
2008,09,18,17,11,16.50
2008,09,18,17,12,16.50
2008,09,18,17,13,16.40
2008,09,18,17,14,16.40
2008,09,18,17,15,16.40
2008,09,18,17,16,16.40
2008,09,18,17,17,16.40
2008,09,18,17,18,16.40
2008,09,18,17,19,16.40
2008,09,18,17,20,16.40
2008,09,18,17,21,16.40
2008,09,18,17,22,16.40
2008,09,18,17,23,16.40
2008,09,18,17,24,16.40
2008,09,18,17,25,16.40
2008,09,18,17,26,16.40
2008,09,18,17,27,16.40
2008,09,18,17,28,16.40
2008,09,18,17,29,16.40
2008,09,18,17,30,16.40
2008,09,18,17,31,16.30
2008,09,18,17,32,16.30
2008,09,18,17,33,16.30
2008,09,18,17,34,16.30
2008,09,18,17,35,16.30
2008,09,18,17,36,16.30
2008,09,18,17,37,16.30
2008,09,18,17,38,16.30
2008,09,18,17,39,16.30
2008,09,18,17,40,16.30
2008,09,18,17,41,16.30
2008,09,18,17,42,16.30
2008,09,18,17,43,16.30
2008,09,18,17,44,16.30
2008,09,18,17,45,16.30
2008,09,18,17,46,16.30
2008,09,18,17,47,16.30
2008,09,18,17,48,16.30
2008,09,18,17,49,16.30
2008,09,18,17,50,16.40
2008,09,18,17,51,16.40
2008,09,18,17,52,16.40
2008,09,18,17,53,16.40
2008,09,18,17,54,16.40
2008,09,18,17,55,16.50
2008,09,18,17,56,16.50
2008,09,18,17,57,16.50
2008,09,18,17,58,16.50
2008,09,18,17,59,16.60
2008,09,18,18,00,16.60
2008,09,18,18,01,16.60
2008,09,18,18,02,16.60
2008,09,18,18,03,16.50
2008,09,18,18,04,16.50
2008,09,18,18,05,16.50
2008,09,18,18,06,16.50
2008,09,18,18,07,16.50
2008,09,18,18,08,16.50
2008,09,18,18,09,16.60
2008,09,18,18,10,16.50
2008,09,18,18,11,16.50
2008,09,18,18,12,16.50
2008,09,18,18,13,16.50
2008,09,18,18,14,16.50
2008,09,18,18,15,16.40
2008,09,18,18,16,16.40
2008,09,18,18,17,16.40
2008,09,18,18,18,16.40
2008,09,18,18,19,16.40
2008,09,18,18,20,16.40
2008,09,18,18,21,16.40
2008,09,18,18,22,16.30
2008,09,18,18,23,16.30
2008,09,18,18,24,16.30
2008,09,18,18,25,16.30
2008,09,18,18,26,16.30
2008,09,18,18,27,16.30
2008,09,18,18,28,16.30
2008,09,18,18,29,16.30
2008,09,18,18,30,16.20
2008,09,18,18,31,16.20
2008,09,18,18,32,16.20
2008,09,18,18,33,16.10
2008,09,18,18,34,16.10
2008,09,18,18,35,16.10
2008,09,18,18,36,16.00
2008,09,18,18,37,16.00
2008,09,18,18,38,15.90
2008,09,18,18,39,15.90
2008,09,18,18,40,15.90
2008,09,18,18,41,15.80
2008,09,18,18,42,15.80
2008,09,18,18,43,15.80
2008,09,18,18,44,15.70
2008,09,18,18,45,15.70
2008,09,18,18,46,15.70
2008,09,18,18,47,15.60
2008,09,18,18,48,15.60
2008,09,18,18,49,15.50
2008,09,18,18,50,15.50
2008,09,18,18,51,15.40
2008,09,18,18,52,15.40